Voltar ao catálogo

STARLINK-36280

AtivoComunicaçõesVLEO
NORAD 67211·PAYLOAD·🇺🇸 United States

Lançado Dec 17, 2025 de Vandenberg Space Force Base

Loading…

Próximas Passagens (próximas 24 horas)

TLE

AtualizadoSource: CelesTrak SupGP

Época: Sep 14, 2026, 23:14 UTC

1 67211C 25304V   26257.96854167 -.00003377  00000+0 -28297-3 0  2578
2 67211  70.0015  57.1711 0002683 273.4216 243.1139 14.98338754    14

Acompanhe STARLINK-36280 em tempo real com AllMySat

Download on the App Store